DK4HPA-4 Weather Reports


time (UTC)temp
C
wind
direction
speed
KPH
gust
KPH
rain 1hr
cm
rain 24hr
cm
rain mn
cm
humidity
%
barometer
mb
20260506103614 11 1 6.4 17.7 0.00 0.13 0.13 78 1015.1
20260506102536 10 333 9.7 14.5 0.00 0.13 0.13 78 1015.0
20260506101712 10 359 4.8 14.5 0.00 0.13 0.13 80 1015.0
20260506095537 10 339 8.0 14.5 0.00 0.13 0.13 80 1015.0
20260506094536 10 315 4.8 9.7 0.00 0.13 0.13 83 1015.0
20260506093537 9 18 6.4 17.7 0.03 0.13 0.13 83 1015.0
20260506092536 9 331 4.8 9.7 0.03 0.13 0.13 85 1014.9
20260506091559 9 354 4.8 9.7 0.03 0.13 0.13 86 1014.8
20260506090710 8 307 4.8 14.5 0.05 0.13 0.13 86 1014.9
20260506085536 8 309 4.8 8.0 0.05 0.13 0.13 87 1014.9
20260506084625 8 329 4.8 9.7 0.08 0.13 0.13 87 1014.9
20260506083737 8 320 4.8 9.7 0.05 0.10 0.10 88 1014.8
20260506082602 8 321 4.8 8.0 0.08 0.10 0.10 89 1014.8
20260506081600 8 310 3.2 4.8 0.08 0.10 0.10 88 1014.8
20260506070537 8 352 6.4 12.9 0.00 0.05 0.00 78 1014.5
20260506060536 8 3 6.4 12.9 0.00 0.15 0.00 73 1014.5
20260506050537 8 29 6.4 14.5 0.00 0.36 0.00 71 1014.5
20260506044536 8 9 3.2 9.7 0.00 0.43 0.00 73 1014.5
20260506042526 8 337 6.4 9.7 0.00 0.48 0.00 73 1014.6
20260506041639 8 336 4.8 9.7 0.00 0.51 0.00 72 1014.5
20260506040624 8 340 4.8 9.7 0.00 0.53 0.00 72 1014.5
20260506035537 8 25 4.8 12.9 0.00 0.53 0.00 72 1014.5
20260506033624 8 324 6.4 19.3 0.00 0.64 0.00 72 1014.5
20260506030712 8 309 4.8 9.7 0.00 0.84 0.00 71 1014.7
20260506024703 8 341 8.0 12.9 0.00 0.84 0.00 69 1015.0
20260506022601 8 338 3.2 8.0 0.00 0.84 0.00 70 1015.2
20260506021537 8 36 3.2 8.0 0.00 0.84 0.00 70 1015.2
20260506015736 8 305 3.2 8.0 0.00 0.84 0.00 69 1015.4
20260506013537 8 359 3.2 8.0 0.00 0.84 0.00 71 1015.4
20260506012600 8 332 4.8 8.0 0.00 0.84 0.00 72 1015.6
20260506011751 8 346 4.8 9.7 0.00 0.84 0.00 75 1015.6
20260506010703 8 294 4.8 8.0 0.00 0.84 0.00 76 1015.6
20260506004622 8 328 4.8 9.7 0.00 0.84 0.00 76 1015.7
20260506003622 8 308 4.8 8.0 0.00 0.84 0.00 76 1015.7
20260506002631 8 330 3.2 8.0 0.00 0.84 0.00 76 1015.9
20260506001606 8 293 4.8 12.9 0.00 0.84 0.00 76 1015.8
20260506000728 8 336 3.2 8.0 0.00 0.84 0.00 77 1015.9
20260505235552 8 66 3.2 9.7 0.00 0.84 0.00 78 1016.0
20260505234703 9 323 4.8 14.5 0.00 0.84 0.00 80 1016.2
20260505232647 9 309 6.4 14.5 0.00 0.84 0.00 79 1016.0
20260505231711 9 2 3.2 9.7 0.00 0.84 0.00 80 1016.1
20260505230608 9 31 8.0 17.7 0.00 0.84 0.00 80 1016.0
20260505224702 9 337 4.8 9.7 0.00 0.84 0.00 82 1016.0
20260505223639 9 313 3.2 9.7 0.00 0.84 0.00 82 1016.4
20260505222639 9 320 3.2 4.8 0.00 0.84 0.00 82 1016.4
20260505221647 10 321 4.8 8.0 0.00 0.84 0.00 80 1016.5
20260505220624 10 332 4.8 9.7 0.00 0.84 0.00 81 1016.5
20260505215713 10 327 4.8 12.9 0.00 0.84 0.84 82 1016.5
20260505214624 10 309 3.2 8.0 0.00 0.84 0.84 82 1016.7
20260505213624 10 308 3.2 4.8 0.00 0.84 0.84 82 1016.7
20260505212737 10 318 3.2 8.0 0.00 0.84 0.84 82 1016.6
20260505211537 10 324 3.2 8.0 0.00 0.84 0.84 83 1016.7
20260505203648 10 288 1.6 4.8 0.00 0.84 0.84 80 1016.8
20260505202536 10 302 3.2 8.0 0.00 0.84 0.84 81 1016.7
20260505201624 10 322 4.8 9.7 0.00 0.84 0.84 80 1016.7
20260505195538 10 307 3.2 4.8 0.00 0.84 0.84 82 1016.6
20260505193712 10 278 1.6 4.8 0.00 0.84 0.84 81 1016.6
20260505191736 11 319 3.2 4.8 0.00 0.84 0.84 80 1016.5
20260505190600 11 298 1.6 4.8 0.00 0.84 0.84 80 1016.4
20260505185536 11 12 3.2 8.0 0.00 0.84 0.84 80 1016.4
20260505184625 11 359 3.2 9.7 0.00 0.84 0.84 80 1016.4
20260505182536 11 307 1.6 4.8 0.00 0.84 0.84 82 1016.6
20260505180601 11 299 4.8 9.7 0.00 0.84 0.84 80 1016.6
20260505174738 11 319 3.2 8.0 0.00 0.84 0.84 80 1016.7
20260505173713 11 318 4.8 9.7 0.00 0.84 0.84 79 1016.6
20260505171648 11 343 1.6 8.0 0.00 0.84 0.84 83 1016.7
20260505170713 12 296 1.6 4.8 0.00 0.84 0.84 82 1016.7
20260505164737 12 26 3.2 8.0 0.00 0.84 0.84 81 1016.7
20260505163624 12 39 3.2 9.7 0.00 0.84 0.84 83 1016.8
20260505161601 12 326 3.2 9.7 0.00 0.84 0.84 82 1016.9
20260505160600 12 332 3.2 9.7 0.00 0.84 0.84 82 1017.0
20260505152600 12 344 4.8 8.0 0.00 0.84 0.84 80 1017.2
20260505151625 12 5 3.2 9.7 0.00 0.84 0.84 81 1017.2
20260505140649 11 335 3.2 8.0 0.00 0.84 0.84 87 1017.5
20260505124536 11 263 3.2 9.7 0.00 0.84 0.84 89 1017.7
20260505123600 11 4 6.4 17.7 0.00 0.84 0.84 89 1017.7
20260505122624 11 331 6.4 12.9 0.00 0.84 0.84 89 1017.8
20260505120648 11 348 4.8 14.5 0.00 0.84 0.84 90 1018.0
20260505115536 11 348 6.4 17.7 0.00 0.84 0.84 93 1017.9
20260505114536 10 322 4.8 9.7 0.00 0.84 0.84 96 1018.0
20260505113648 10 322 6.4 9.7 0.00 0.84 0.84 96 1018.0
20260505112712 10 26 4.8 9.7 0.00 0.84 0.84 96 1018.1
20260505111537 10 316 4.8 14.5 0.00 0.84 0.84 97 1018.1